Temp
74 76 75 75 73 75 75 76 76 76 79 81 80 80 79 80 82 82 80 79 73 77 77 80 77 74 76 75 73 74 76 77 76 68 64 65 67 67 69 72 71 70 64
70 71 70 69 68 70 73 75 77 78 79 81 83 82 81 81 82 81 80 79 74 74 78 79 77 70 74 73 72 75 76 73 71 73 71 63 62 64 70 72 71 68 68
65 63 63 63 64 66 71 75 77 78 79 80 84 81 76 78 79 80 78 79 75 72 74 78 78 71 75 70 69 75 74 69 68 76 74 67 67 70 70 67 70 70 66
57 56 55 56 55 59 64 71 76 77 79 79 81 79 75 72 77 78 79 78 76 72 71 75 77 74 75 74 70 77 76 75 67 74 77 79 78 70 63 67 66 66 69
52 49 48 51 50 53 57 63 74 75 77 78 79 80 77 76 80 79 76 76 74 73 70 71 73 72 72 75 73 72 75 76 75 72 74 73 74 76 74 67 64 64 66
48 46 45 46 46 46 50 57 71 74 75 76 78 78 77 78 79 77 75 76 74 70 70 70 71 71 71 71 71 71 73 76 75 74 75 73 70 71 72 71 71 67 66
45 42 41 38 42 42 45 53 67 72 74 74 77 79 78 76 77 74 75 73 70 67 68 68 68 69 70 70 70 69 70 73 74 74 74 74 73 75 74 74 70 70 71
45 43 39 37 40 41 43 47 55 71 75 75 76 79 80 81 81 82 80 77 74 71 70 68 69 70 70 70 69 69 69 73 74 73 74 74 75 76 76 73 71 65 66
41 41 38 37 39 40 41 44 47 60 75 75 77 79 80 80 80 80 80 79 77 73 70 68 68 68 69 69 69 68 68 71 71 73 73 74 74 76 77 77 74 70 62
40 39 37 35 38 40 41 41 44 47 56 69 78 79 79 79 80 79 78 78 77 75 70 67 67 67 68 69 68 68 70 69 68 68 71 71 71 69 68 70 74 73 69
39 37 36 34 37 39 39 40 42 44 49 51 57 66 74 76 78 77 76 75 74 73 70 69 68 66 67 67 66 67 71 68 67 65 65 67 67 66 67 67 69 69 70
41 38 36 34 35 36 37 38 40 42 46 48 50 51 54 58 62 70 74 74 73 70 68 66 65 65 65 65 65 66 68 67 64 64 64 64 65 65 67 65 65 64 66
39 37 34 32 32 34 36 37 39 40 43 47 45 45 50 53 52 55 59 64 64 64 64 63 63 63 64 63 64 66 66 65 64 64 63 64 64 64 65 66 67 66 67
38 35 32 32 32 33 34 36 37 39 41 44 44 43 45 47 53 55 53 56 66 66 66 69 68 65 63 63 63 64 66 65 63 64 63 63 62 63 64 66 66 66 65
38 34 31 31 32 32 33 35 36 38 39 41 43 40 45 45 50 48 51 53 55 64 68 67 66 64 63 63 61 62 64 64 62 63 64 66 63 55 59 67 67 68 64
37 35 33 32 32 32 35 35 35 37 39 36 36 40 40 41 42 44 46 48 50 54 59 61 61 61 60 48 48 56 62 65 64 63 63 62 52 52 46 45 44 50 58
37 35 34 33 33 34 35 35 38 39 38 34 36 38 37 37 39 41 43 43 46 49 50 50 56 52 45 40 45 46 60 59 61 63 62 61 60 54 60 45 41 41 39
38 37 38 37 37 38 38 37 40 40 39 39 39 37 37 37 39 39 39 41 43 44 43 44 46 45 40 38 40 41 59 59 59 61 62 61 57 54 53 48 46 47 48
41 40 40 39 39 38 39 39 36 38 38 37 37 38 38 37 37 36 38 40 40 40 39 39 39 40 38 37 38 42 54 57 57 55 49 52 51 40 41 47 43 43 41
41 40 41 40 38 38 39 38 36 35 35 36 37 38 39 38 36 37 38 39 40 38 37 36 35 35 35 35 37 39 48 47 45 43 38 35 38 36 37 46 46 43 39
40 41 41 39 38 39 38 38 37 35 36 38 38 39 38 37 37 37 37 39 39 39 37 35 36 36 33 36 35 36 43 40 40 38 36 35 35 36 37 36 39 39 35
39 40 39 38 39 38 38 37 36 37 39 39 38 38 37 36 37 36 37 37 37 36 36 35 35 34 34 33 33 34 35 37 34 32 32 32 33 33 33 33 33 34 35
38 39 38 37 37 37 37 36 36 38 39 39 38 38 37 36 35 33 33 34 35 34 32 33 32 31 33 33 33 32 32 32 30 30 31 31 31 31 30 30 31 32 33
35 36 37 35 34 36 36 36 37 38 39 38 37 39 37 36 34 34 32 30 30 32 31 31 30 30 31 31 32 32 32 32 30 30 30 29 28 29 29 29 29 28 29
34 34 32 33 33 35 35 35 36 39 37 36 36 37 37 36 35 32 30 30 29 29 30 30 30 29 28 29 31 31 30 30 29 31 30 28 27 26 26 26 26 27 27
34 32 31 31 31 33 34 35 35 36 36 35 35 34 36 36 35 34 32 30 29 28 29 30 30 31 31 31 31 31 31 31 32 31 29 27 26 26 26 26 25 26 26
MSLP
1009.21 1009.12 1008.98 1008.91 1008.54 1006.79 1006.04 1005.45 1005.36 1005.32 1005.47 1004.38 1003.91 1004.31 1004.55 1005.50 1006.15 1006.29 1007.12 1008.12 1009.12 1009.47 1009.91 1010.20 1010.96 1011.62 1011.85 1012.59 1013.60 1014.02 1013.96 1014.12 1014.80 1015.81 1016.78 1017.22 1017.34 1017.36 1017.48 1017.43 1017.78 1018.35 1019.07
1008.97 1008.83 1009.14 1009.06 1008.13 1006.77 1005.16 1004.13 1004.07 1003.67 1003.79 1003.77 1002.82 1002.96 1003.29 1003.76 1004.71 1005.52 1006.04 1006.84 1007.83 1008.64 1009.00 1009.33 1010.12 1011.21 1011.49 1012.08 1012.82 1013.01 1013.33 1014.03 1014.68 1014.64 1015.40 1016.34 1017.27 1017.28 1016.98 1017.10 1017.54 1018.10 1018.40
1009.73 1009.66 1009.52 1009.38 1008.28 1006.68 1004.54 1003.45 1002.37 1002.48 1002.32 1002.36 1001.90 1002.19 1003.03 1003.36 1003.75 1003.96 1004.98 1005.47 1007.03 1007.61 1008.33 1008.70 1009.16 1010.48 1010.96 1011.47 1012.17 1012.21 1012.78 1013.47 1014.49 1013.84 1013.73 1014.27 1014.50 1015.32 1016.28 1016.98 1017.09 1017.40 1018.05
1011.71 1011.77 1011.12 1009.73 1009.21 1007.46 1005.52 1002.87 1001.31 1001.28 1001.17 1001.65 1001.07 1000.93 1001.33 1001.49 1002.03 1002.94 1003.75 1004.30 1005.67 1006.86 1007.39 1008.22 1008.54 1009.38 1010.08 1010.49 1011.32 1011.49 1011.90 1012.40 1013.39 1013.42 1013.43 1012.93 1013.14 1013.72 1015.11 1016.25 1016.82 1017.17 1017.16
1013.01 1012.58 1011.66 1010.64 1009.17 1007.61 1005.93 1003.33 1000.20 1000.16 1000.16 1000.25 1000.67 1000.20 1000.34 1001.01 1001.13 1001.16 1003.20 1003.44 1004.64 1005.92 1006.74 1007.59 1008.04 1008.58 1009.25 1009.70 1010.32 1010.91 1011.16 1011.57 1011.73 1012.63 1012.85 1012.96 1013.41 1013.42 1013.24 1014.35 1015.92 1016.68 1016.78
1013.83 1013.33 1012.65 1011.41 1009.70 1007.97 1005.87 1003.23 999.47 998.95 999.29 999.35 999.54 999.30 999.40 999.93 1000.18 1001.98 1001.97 1002.00 1003.37 1004.75 1005.83 1006.88 1007.27 1007.67 1008.32 1008.92 1009.65 1010.26 1010.45 1010.68 1011.22 1011.80 1012.16 1012.24 1012.67 1012.84 1013.05 1013.27 1013.87 1015.17 1015.70
1014.42 1013.55 1012.89 1011.82 1010.21 1008.59 1006.34 1003.72 999.35 998.12 998.39 998.36 998.47 998.34 998.48 999.25 999.59 999.66 999.79 1001.30 1002.52 1004.02 1004.48 1005.57 1006.36 1006.71 1007.16 1008.01 1008.97 1009.69 1009.95 1010.27 1010.52 1010.86 1011.40 1011.87 1012.08 1012.38 1012.45 1012.57 1013.10 1013.68 1014.13
1015.02 1014.64 1014.08 1012.83 1011.09 1009.08 1006.83 1004.03 1000.97 997.83 997.52 997.34 997.56 997.60 997.81 997.93 997.97 998.02 998.22 1000.43 1001.75 1002.81 1003.33 1004.48 1005.40 1006.05 1006.65 1007.37 1008.13 1009.01 1009.43 1009.63 1009.98 1010.25 1010.73 1011.14 1011.49 1011.87 1011.93 1012.23 1012.64 1013.27 1013.80
1015.97 1015.21 1014.26 1013.25 1011.58 1009.82 1007.76 1005.08 1002.12 999.38 996.80 996.93 997.25 997.12 997.31 997.41 997.32 997.73 998.63 999.69 1001.22 1002.13 1002.84 1003.61 1004.56 1005.29 1005.83 1006.63 1007.41 1008.17 1008.72 1009.12 1009.31 1009.52 1010.08 1010.48 1010.88 1011.09 1011.22 1011.57 1012.06 1012.35 1012.89
1016.49 1015.84 1014.68 1013.45 1011.80 1009.95 1007.49 1004.82 1003.09 1001.82 999.92 997.66 996.83 996.87 997.04 997.35 997.78 998.37 998.71 999.41 1000.24 1001.07 1002.16 1003.17 1004.06 1004.83 1005.28 1005.96 1006.67 1007.42 1008.14 1008.60 1008.89 1009.31 1009.58 1010.12 1010.73 1011.29 1011.50 1011.63 1011.76 1012.07 1012.23
1016.85 1016.54 1015.45 1014.24 1012.96 1011.03 1009.12 1007.16 1005.43 1003.79 1001.75 1000.57 999.51 998.37 997.70 997.65 997.98 998.31 998.73 999.23 1000.12 1000.90 1001.72 1002.62 1003.46 1004.19 1004.84 1005.37 1006.02 1006.79 1007.23 1007.84 1008.40 1008.97 1009.36 1009.93 1010.46 1010.77 1011.04 1011.43 1011.69 1011.82 1012.01
1017.39 1017.27 1016.53 1015.42 1013.89 1011.97 1010.40 1008.65 1006.81 1005.15 1003.88 1002.97 1001.47 1000.52 1000.02 999.77 999.42 999.03 998.89 999.27 999.62 1000.56 1001.53 1002.30 1002.86 1003.67 1004.59 1005.00 1005.52 1006.32 1006.73 1007.22 1007.78 1008.27 1008.83 1009.35 1009.86 1010.20 1010.58 1011.04 1011.32 1011.61 1011.80
1017.74 1017.58 1017.10 1016.11 1014.75 1013.63 1012.47 1010.71 1008.98 1007.36 1005.97 1004.70 1003.71 1003.05 1002.19 1001.53 1001.05 1000.69 1000.48 1000.32 1000.61 1001.24 1001.74 1002.27 1002.76 1003.26 1004.16 1004.89 1005.14 1006.05 1006.60 1006.71 1007.11 1007.69 1008.14 1008.63 1009.13 1009.53 1009.91 1010.32 1010.65 1010.96 1011.25
1018.02 1018.24 1017.71 1016.91 1015.57 1015.27 1014.05 1012.25 1010.60 1009.29 1008.12 1006.92 1005.79 1005.23 1004.46 1003.48 1002.99 1002.40 1002.04 1001.57 1001.03 1001.28 1001.66 1002.10 1002.47 1003.03 1003.85 1004.29 1004.93 1005.04 1006.20 1006.49 1006.66 1007.15 1007.64 1008.11 1008.52 1008.91 1009.34 1009.68 1010.01 1010.47 1010.72
1018.31 1018.66 1018.51 1017.72 1016.39 1015.63 1014.84 1013.77 1012.03 1010.59 1009.53 1008.36 1007.49 1007.07 1005.96 1005.44 1004.97 1004.31 1003.47 1002.85 1002.61 1001.91 1001.98 1002.22 1002.51 1002.97 1003.07 1003.73 1004.02 1004.76 1005.39 1006.12 1006.41 1006.59 1007.20 1007.60 1008.00 1008.40 1008.60 1009.04 1009.37 1009.76 1010.19
1018.74 1018.74 1018.60 1018.13 1017.10 1016.03 1014.93 1013.35 1012.75 1011.86 1011.19 1009.82 1009.09 1008.47 1007.07 1005.89 1006.54 1005.14 1004.34 1003.46 1003.88 1003.09 1002.31 1002.30 1002.71 1002.95 1003.57 1004.16 1004.10 1003.83 1005.18 1005.57 1005.93 1006.44 1007.11 1007.76 1008.16 1008.49 1008.88 1009.40 1009.82 1010.25 1010.56
1018.80 1018.64 1018.45 1017.91 1016.99 1015.81 1015.16 1014.48 1013.34 1011.93 1010.54 1011.18 1011.09 1009.31 1006.60 1007.41 1006.95 1006.64 1005.79 1004.65 1004.50 1004.38 1004.41 1003.62 1003.54 1004.12 1004.63 1004.74 1004.27 1004.71 1004.78 1005.26 1005.74 1006.34 1006.96 1007.63 1008.18 1008.54 1008.80 1009.41 1009.82 1010.19 1010.64
1019.10 1018.72 1018.54 1018.34 1017.78 1017.06 1016.03 1015.48 1014.61 1013.55 1013.59 1012.48 1011.35 1010.17 1010.41 1009.65 1008.56 1008.18 1007.57 1006.75 1005.99 1005.50 1005.11 1005.16 1005.05 1005.43 1006.34 1006.05 1005.85 1004.87 1004.48 1004.63 1005.51 1006.08 1006.76 1007.23 1007.99 1008.69 1009.02 1009.56 1009.99 1010.21 1010.68
1019.87 1019.59 1019.33 1018.79 1018.16 1017.30 1016.27 1015.53 1015.11 1014.25 1013.00 1012.43 1011.74 1011.23 1010.71 1010.47 1009.84 1009.41 1008.55 1007.92 1007.40 1006.86 1006.94 1006.78 1006.76 1006.61 1007.24 1007.09 1006.64 1005.82 1005.08 1005.51 1005.71 1006.53 1007.26 1007.99 1008.58 1009.10 1009.25 1009.56 1009.76 1009.99 1010.46
1020.44 1020.02 1019.53 1019.14 1018.76 1018.17 1017.17 1016.29 1015.93 1015.49 1015.02 1014.28 1013.35 1012.58 1011.99 1011.40 1010.83 1010.46 1009.94 1009.07 1008.63 1008.36 1008.27 1007.94 1008.19 1008.33 1007.93 1007.75 1007.18 1006.56 1005.89 1006.20 1006.43 1007.50 1008.51 1009.10 1009.36 1009.51 1009.81 1009.49 1009.81 1010.15 1010.62
1020.83 1020.51 1019.96 1019.45 1019.24 1018.78 1018.18 1017.25 1016.47 1016.01 1015.80 1015.22 1014.49 1013.68 1013.11 1012.60 1012.18 1011.66 1011.06 1010.36 1009.70 1009.09 1008.95 1008.84 1008.97 1009.00 1009.31 1008.57 1008.13 1007.33 1006.57 1006.69 1007.47 1008.54 1009.37 1009.96 1009.90 1009.92 1010.03 1010.14 1010.00 1010.35 1010.88
1021.28 1021.00 1020.44 1020.12 1019.90 1019.42 1018.80 1017.99 1017.74 1017.15 1016.37 1015.83 1015.28 1014.73 1014.32 1013.81 1013.09 1012.58 1012.04 1011.48 1010.73 1010.30 1010.39 1010.27 1009.93 1009.97 1009.89 1009.89 1009.47 1008.61 1008.00 1007.80 1008.22 1009.38 1010.29 1010.70 1010.67 1010.89 1010.85 1010.89 1011.02 1011.12 1011.35
1021.94 1021.52 1020.98 1020.64 1020.49 1020.10 1019.58 1018.93 1018.55 1017.84 1017.11 1016.23 1015.80 1015.45 1014.91 1014.51 1014.28 1013.95 1013.21 1012.29 1011.71 1011.73 1011.63 1011.09 1011.05 1011.15 1011.09 1010.74 1010.57 1010.53 1010.19 1009.87 1009.95 1010.44 1010.88 1011.32 1011.43 1011.55 1011.66 1011.81 1011.81 1011.86 1011.94
1022.62 1022.41 1021.86 1021.36 1020.97 1020.62 1020.13 1019.53 1018.75 1017.96 1017.13 1016.60 1016.19 1015.84 1015.33 1014.95 1014.89 1014.49 1014.34 1014.04 1013.34 1012.99 1012.63 1012.39 1012.43 1012.43 1012.14 1011.92 1011.74 1011.57 1011.49 1011.40 1011.45 1011.53 1011.86 1012.02 1011.90 1011.88 1012.32 1012.47 1012.61 1012.73 1012.94
1023.26 1023.23 1022.78 1022.16 1021.60 1021.15 1020.72 1020.25 1019.61 1018.46 1017.65 1016.96 1016.58 1016.01 1015.73 1015.54 1015.25 1015.53 1015.50 1015.14 1015.49 1015.11 1014.25 1014.10 1014.00 1013.67 1013.45 1013.38 1012.96 1012.66 1012.42 1012.30 1012.38 1012.20 1012.61 1012.59 1012.66 1013.02 1013.22 1013.31 1013.44 1013.66 1013.91
1023.80 1023.69 1023.53 1023.13 1022.64 1022.02 1021.44 1020.82 1020.25 1019.29 1018.48 1017.59 1017.29 1017.13 1016.55 1016.14 1015.96 1015.76 1015.81 1016.41 1016.43 1016.06 1015.87 1015.57 1015.10 1014.76 1014.61 1014.30 1013.96 1013.58 1013.19 1012.98 1012.81 1012.90 1013.15 1013.43 1013.72 1014.06 1014.16 1014.01 1014.39 1014.56 1014.51
Wind_Speed
20 22 24 24 31 30 26 24 23 21 16 15 15 15 16 15 15 15 18 18 16 19 18 13 13 13 13 13 14 12 13 10 11 7 4 2 5 7 7 7 8 9 6
27 25 25 29 29 28 29 28 25 23 19 16 15 15 15 15 15 13 16 18 18 20 18 16 15 16 12 15 14 14 11 8 8 10 10 5 3 4 7 7 9 10 6
29 28 30 29 27 32 25 27 25 26 21 21 16 15 11 11 14 15 15 18 19 20 19 20 15 16 14 12 14 15 17 10 9 14 8 5 7 8 8 9 8 10 8
28 27 28 29 24 27 30 30 27 24 21 21 19 22 16 16 14 14 14 15 22 19 19 19 17 16 14 16 15 14 15 14 11 12 12 9 6 6 5 6 8 8 11
25 28 27 28 26 25 28 30 25 23 23 20 22 17 21 15 18 12 18 17 16 20 18 19 19 16 14 15 16 16 16 13 11 12 12 9 8 8 6 6 6 8 9
29 24 26 26 25 25 26 30 24 22 23 22 23 23 23 20 15 22 15 14 13 14 18 19 18 16 15 16 16 16 18 15 13 11 13 10 11 10 8 8 6 9 9
26 25 26 26 25 27 27 25 23 20 22 22 22 24 24 23 24 18 14 14 12 12 16 19 18 15 17 16 15 16 16 16 14 16 11 9 9 9 8 9 7 7 4
26 26 25 24 24 27 27 25 26 17 18 21 22 21 23 15 15 14 10 13 13 14 17 17 17 18 17 15 15 13 12 15 15 18 15 10 10 10 10 9 9 8 7
26 28 27 25 24 26 25 23 24 25 11 17 16 19 19 18 16 16 17 13 16 13 16 17 18 18 17 17 16 12 15 16 13 14 16 13 11 11 9 9 9 9 8
25 24 24 26 24 27 26 27 26 22 19 15 10 13 16 17 15 15 16 17 14 15 13 15 16 15 16 15 16 13 15 15 11 9 14 13 10 9 6 7 10 11 11
23 21 22 24 23 26 26 24 23 22 20 17 16 12 5 10 13 12 12 12 11 13 13 15 16 15 15 16 15 13 17 17 13 12 13 15 13 8 8 6 9 9 10
22 22 22 22 23 27 27 25 24 22 19 17 17 17 14 13 11 0 9 9 10 8 9 10 12 11 12 11 11 13 15 17 14 13 13 14 9 12 11 8 11 8 9
21 21 20 21 21 23 22 22 21 21 20 18 16 17 14 13 13 11 9 4 8 7 7 8 8 9 9 8 10 12 14 14 13 13 13 12 12 11 9 9 11 9 9
19 19 18 20 19 17 18 19 20 19 18 16 16 15 16 15 13 12 11 12 3 8 10 12 11 11 10 9 9 10 13 13 12 12 11 11 11 11 11 12 13 11 10
21 18 17 18 18 19 17 15 16 18 17 19 19 15 15 16 13 11 11 11 10 3 9 11 9 9 9 8 9 9 11 12 10 10 10 11 12 12 10 8 10 12 9
21 19 17 17 17 17 19 20 17 17 14 15 18 18 14 19 15 14 12 11 11 9 4 2 5 7 5 10 14 10 9 10 10 9 9 6 7 7 7 6 5 4 6
21 19 17 17 18 19 19 18 18 18 20 14 12 16 19 17 17 15 14 14 12 10 9 10 6 10 12 18 6 17 9 7 7 9 8 7 5 6 5 5 4 3 3
20 19 18 17 17 16 18 16 17 16 14 15 16 15 11 11 14 13 12 12 10 10 11 11 11 10 11 17 13 10 7 7 6 5 6 5 5 5 5 3 4 4 3
16 15 15 16 17 19 18 17 16 18 19 19 19 18 16 14 13 13 13 11 10 10 10 10 13 10 11 20 13 6 2 4 6 6 7 2 1 4 6 5 3 1 2
14 15 16 15 16 17 18 16 16 15 16 16 17 16 15 14 15 13 13 10 8 8 7 11 10 16 11 23 18 11 1 4 5 5 6 12 5 2 4 2 3 3 2
15 15 14 14 15 16 16 15 15 16 14 13 13 14 15 14 13 11 11 11 10 10 10 10 11 13 13 15 24 19 1 3 4 4 4 5 11 8 3 2 2 3 5
14 14 13 13 15 16 15 14 14 14 13 12 12 13 14 12 11 14 12 12 12 12 11 11 10 10 11 19 22 24 17 7 8 7 6 8 17 17 15 9 10 8 4
12 12 12 13 13 14 14 15 15 13 12 11 12 11 12 13 13 12 13 11 13 10 9 9 9 9 9 9 18 20 20 17 10 7 11 14 14 13 12 16 14 8 4
11 11 12 12 13 13 14 15 15 14 12 11 11 10 10 11 13 10 10 10 11 9 9 10 9 8 9 10 9 7 6 11 8 9 9 9 10 13 9 8 9 7 6
9 9 11 12 13 13 13 14 15 14 12 11 11 11 9 10 9 10 11 10 12 14 10 9 9 9 9 10 12 11 6 6 6 8 6 6 7 7 6 7 8 7 6
10 10 10 11 12 13 13 14 14 15 14 10 9 9 8 8 8 8 6 16 16 21 22 21 13 8 14 15 16 15 13 12 6 6 7 7 7 7 6 7 7 7 9
Wind_Direction
318 318 326 323 315 303 284 258 260 255 249 238 215 211 209 206 211 204 198 197 193 201 196 197 183 193 190 184 187 190 198 196 187 138 143 158 194 202 222 204 191 192 173
324 327 332 323 316 294 283 274 249 248 244 241 225 212 210 201 206 201 198 196 187 198 197 196 183 192 188 187 189 196 192 193 168 194 175 187 200 226 220 208 197 188 193
337 338 328 324 325 317 297 276 254 251 240 234 228 215 215 209 202 199 202 193 194 192 203 197 190 188 192 189 190 193 194 180 201 219 186 178 226 179 193 214 216 201 201
346 335 327 317 332 319 311 294 263 242 238 238 239 216 200 200 210 206 201 194 195 196 190 202 197 184 196 190 191 195 196 201 189 209 223 237 263 190 155 214 212 215 211
344 334 334 332 327 324 317 305 268 238 241 230 238 220 214 202 208 193 205 192 190 197 191 198 196 189 197 196 190 198 200 198 196 207 208 206 220 240 262 173 201 212 223
344 333 342 329 329 329 320 317 269 237 238 227 232 218 214 205 206 201 191 193 186 186 194 197 197 193 193 195 195 195 198 204 210 189 218 210 210 218 221 234 199 214 205
345 347 342 330 336 331 324 321 301 240 235 225 227 212 213 211 203 186 185 185 184 192 191 192 195 195 192 190 189 193 196 200 204 208 205 210 217 226 222 236 234 234 190
352 348 339 332 338 333 329 331 331 246 234 219 220 214 215 212 215 206 179 197 197 200 187 192 196 195 191 189 188 194 196 202 205 207 211 214 217 215 221 224 235 232 224
352 346 342 338 340 338 334 337 348 352 237 225 224 217 211 214 204 206 202 198 205 199 191 189 196 194 190 188 184 194 198 202 202 208 207 216 217 223 226 226 246 243 240
351 345 344 342 341 343 341 350 358 354 359 356 216 206 205 207 208 210 201 209 207 189 184 186 192 194 192 188 183 190 199 201 197 201 208 209 209 211 212 227 241 241 248
348 349 345 341 339 347 348 351 356 356 6 9 14 10 267 217 209 204 208 204 185 185 181 187 190 192 192 190 192 192 197 201 196 191 195 206 203 206 207 213 229 242 241
349 351 349 344 342 354 346 349 354 359 4 11 12 21 19 25 28 172 200 220 209 182 171 179 187 185 189 192 189 199 203 197 194 192 193 202 195 205 211 206 220 223 234
351 351 351 347 347 349 342 348 353 359 1 7 14 15 15 25 21 23 9 155 135 154 150 149 155 159 167 178 181 202 210 197 192 189 191 195 192 202 204 210 221 225 231
354 353 349 346 344 341 338 343 354 0 2 7 14 15 16 16 14 15 12 5 186 172 170 177 176 173 172 176 199 187 213 203 188 185 190 194 193 201 206 216 226 228 237
352 355 351 343 340 343 342 346 353 359 360 12 16 4 20 20 9 9 17 14 5 247 189 181 180 185 172 184 172 198 201 201 190 184 194 203 205 209 227 225 235 242 250
350 352 349 342 342 344 344 356 355 0 360 14 7 356 7 19 358 9 15 25 8 8 350 133 160 168 177 185 175 153 193 190 191 190 199 187 177 187 193 221 246 255 251
349 351 352 349 345 348 349 353 351 358 13 6 354 360 18 7 358 3 3 10 14 17 33 38 39 61 35 7 259 201 182 170 188 188 188 192 196 201 210 182 193 228 238
350 350 349 351 349 346 349 358 358 7 5 3 1 16 18 11 8 2 2 10 16 19 32 34 38 77 44 20 9 329 165 154 154 168 191 207 194 191 186 182 215 226 239
351 350 349 349 352 351 348 357 6 3 5 2 5 9 10 10 6 5 4 6 19 31 33 40 40 48 37 18 12 350 328 152 133 124 72 33 284 154 171 191 180 235 142
353 352 351 355 357 354 349 358 3 8 7 0 1 5 8 11 12 9 5 5 26 47 37 46 41 36 30 18 10 5 298 144 110 83 69 47 23 125 185 223 205 236 77
355 354 355 360 1 356 352 1 2 3 1 360 6 12 15 14 14 13 16 15 26 41 37 44 44 39 29 22 17 11 9 91 87 84 67 39 41 43 50 9 55 85 118
357 359 356 2 4 1 355 0 8 352 360 4 12 21 21 20 20 20 23 26 32 40 39 39 40 31 23 27 24 26 31 61 102 94 82 72 70 67 59 58 65 87 101
356 357 357 0 6 6 1 2 1 356 3 10 12 21 27 32 31 25 23 26 31 30 28 33 31 25 19 20 22 32 43 51 74 80 96 93 83 76 64 59 52 42 48
3 355 354 2 4 2 359 358 355 355 1 5 19 20 30 36 35 36 32 29 26 27 31 31 27 23 22 21 15 24 27 44 60 73 73 69 71 68 65 57 53 55 54
6 4 359 356 1 359 0 1 353 355 1 12 13 15 26 30 42 55 37 39 40 31 31 24 35 23 29 24 31 34 37 48 44 63 51 52 50 55 56 61 58 60 61
4 3 6 359 355 357 359 0 0 357 1 11 13 19 18 21 31 32 65 64 50 42 37 37 32 38 37 36 41 47 55 58 63 75 67 62 59 58 57 66 69 62 71